Location: Burla
(50.9568°N, 10.4983°E)
Time: 03:35:41
(UTC+00:00)

BREEZE-M DEB (TANK) - Visible Passes

Search period start: 21 April 2026 00:00
Search period end: 01 May 2026 00:00
Orbit: 312 x 11303 km, 49.7° (Epoch: 20 April)

Date Brightness Start Highest point End Pass type
(mag) Time Alt. Az. Time Alt. Az. Time Alt. Az.
21 Apr 7.1 20:22:07 10° WNW 20:30:31 16° W 20:35:13 10° SW visible
24 Apr 6.7 18:49:06 10° WNW 19:08:41 33° WSW 19:15:15 10° S visible
26 Apr 7.0 19:13:35 10° WNW 19:28:39 24° WSW 19:34:54 10° SSW visible
28 Apr 7.4 19:38:25 10° WNW 19:48:12 16° W 19:53:33 10° SW visible
